Regional Weather Roundup
Issued by NWS Albany, NY

Home | Current Version | Previous Version | Text Only | Print | Product List | Glossary On
Versions: 1 2 3 4 5 6 7 8 9 10 11 12 13 14 15 16 17 18 19 20 21 22 23 24 25 26 27
000
ASUS41 KALY 210410
RWRALY

NEW YORK STATE HOURLY WEATHER ROUNDUP
NATIONAL WEATHER SERVICE ALBANY NY
1100 PM EST TUE FEB 20 2018

NOTE: "FAIR" INDICATES FEW OR NO CLOUDS BELOW 12,000 FEET WITH NO
SIGNIFICANT WEATHER AND/OR NO OBSTRUCTIONS TO VISIBILITY.

NYZ032-033-038>043-046>054-057>066-NYZ062>081-082-084-210500-
EAST


CITY           SKY/WX    TMP DP  RH WIND       PRES   REMARKS
ALBANY         MOCLDY    57  49  74 S9        30.22S
GLENS FALLS    FAIR      40  39  97 CALM      30.21S
POUGHKEEPSIE   FAIR      45  43  93 CALM      30.28S
NEWBURGH       CLEAR     50  50 100 CALM      30.30S
MONTGOMERY     FOG       41  41 100 CALM      30.28S VSB 1/4
WHITE PLAINS   FAIR      55  51  86 S3        30.31S
ISLIP          FOG       48  48 100 SW9       30.35S VSB 1/4
NEW YORK CITY  FAIR      54  48  80 S7        30.32S
CENTRAL PARK   FAIR      64  57  78 VRB6      30.34S
$$

NYZ005>009-017-018-044>046-055-056-210500-
CENTRAL


CITY           SKY/WX    TMP DP  RH WIND       PRES   REMARKS
FULTON         CLOUDY    53  52  96 CALM      30.10F
SYRACUSE       CLOUDY    65  55  70 S13G21    30.12F
ROME           MOCLDY    43  43 100 CALM      30.17F
ELMIRA         FAIR      62  54  74 W7        30.19S
BINGHAMTON     FAIR      59  51  75 S9        30.22F
MONTICELLO     LGT RAIN  48  48 100 CALM      30.31S FOG
$$

NYZ026>034-041>043-087-210500-
NORTH


CITY           SKY/WX    TMP DP  RH WIND       PRES   REMARKS
WATERTOWN      CLOUDY    62  54  74 S8G17     30.06F
FORT DRUM      NOT AVBL
OGDENSBURG     CLOUDY    53  52  99 S6        30.07F FOG
MASSENA        FOG       38  38 100 CALM      30.07F VSB 1/4
SARANAC LAKE   CLOUDY    52  52 100 SW7       30.13F FOG
PLATTSBURGH    CLOUDY    47  45  93 SE5       30.11F
$$

NYZ001>004-010>016-019>021-085-210500-
WEST


CITY           SKY/WX    TMP DP  RH WIND       PRES   REMARKS
NIAGARA FALLS  FAIR      63  51  65 S14       30.03S
BUFFALO        FAIR      66  54  65 S18       30.05S
DUNKIRK        FAIR      66  53  63 S15G23    30.08R
JAMESTOWN        N/A    N/A N/A N/A MISG        N/A
WELLSVILLE     FAIR      62  53  72 S10       30.19F
ROCHESTER      FAIR      66  55  67 S12       30.08S
PENN YAN       FAIR      61  50  67 SW10      30.15F
$$

             KEY
       WCI = WIND CHILL INDEX
       VSB = VISIBILITY
       HX  = HEAT INDEX
$$




USA.gov is the U.S. government's official web portal to all federal, state and local government web resources and services.